Time,TemperatureF,DewpointF,PressureIn,WindDirection,WindDirectionDegrees,WindSpeedMPH,WindSpeedGustMPH,Humidity,HourlyPrecipIn,Conditions,Clouds,dailyrainin,SoftwareType,DateUTC
2013-02-19 00:00:00,41.4,28.0,30.26,South,172,0.0,1.0,58,0.00,,,0.00,weatherlink.com 1.10,2013-02-19 02:00:00,
2013-02-19 00:16:00,40.6,27.0,30.26,South,172,0.0,4.0,59,0.00,,,0.00,weatherlink.com 1.10,2013-02-19 02:16:00,
2013-02-19 00:31:00,41.6,28.0,30.26,South,180,3.0,8.0,58,0.00,,,0.00,weatherlink.com 1.10,2013-02-19 02:31:00,
2013-02-19 00:46:00,41.9,28.0,30.27,SSW,205,0.0,5.0,57,0.00,,,0.00,weatherlink.com 1.10,2013-02-19 02:46:00,
2013-02-19 01:18:00,41.5,28.0,30.25,South,188,0.0,4.0,58,0.00,,,0.00,weatherlink.com 1.10,2013-02-19 03:18:00,
2013-02-19 01:34:00,42.8,28.0,30.24,South,189,7.0,8.0,56,0.00,,,0.00,weatherlink.com 1.10,2013-02-19 03:34:00,
2013-02-19 01:49:00,42.0,28.0,30.23,SSW,193,2.0,8.0,57,0.00,,,0.00,weatherlink.com 1.10,2013-02-19 03:49:00,
2013-02-19 02:05:00,42.8,28.0,30.23,South,188,5.0,12.0,55,0.00,,,0.00,weatherlink.com 1.10,2013-02-19 04:05:00,
2013-02-19 02:20:00,43.4,27.0,30.23,South,180,8.0,16.0,53,0.00,,,0.00,weatherlink.com 1.10,2013-02-19 04:20:00,
2013-02-19 02:36:00,43.1,28.0,30.23,SSE,168,13.0,15.0,54,0.00,,,0.00,weatherlink.com 1.10,2013-02-19 04:36:00,
2013-02-19 02:51:00,43.0,27.0,30.23,SSW,202,12.0,12.0,54,0.00,,,0.00,weatherlink.com 1.10,2013-02-19 04:51:00,
2013-02-19 03:07:00,42.4,27.0,30.23,SSW,197,7.0,14.0,54,0.00,,,0.00,weatherlink.com 1.10,2013-02-19 05:07:00,
2013-02-19 03:23:00,42.4,27.0,30.21,South,170,4.0,12.0,54,0.00,,,0.00,weatherlink.com 1.10,2013-02-19 05:23:00,
2013-02-19 03:38:00,42.1,27.0,30.22,SSW,204,7.0,17.0,55,0.00,,,0.00,weatherlink.com 1.10,2013-02-19 05:38:00,
2013-02-19 03:53:00,41.6,27.0,30.22,South,175,6.0,15.0,56,0.00,,,0.00,weatherlink.com 1.10,2013-02-19 05:53:00,
2013-02-19 04:08:00,41.4,27.0,30.21,South,178,4.0,10.0,56,0.00,,,0.00,weatherlink.com 1.10,2013-02-19 06:08:00,
2013-02-19 04:24:00,40.5,26.0,30.20,South,171,0.0,5.0,57,0.00,,,0.00,weatherlink.com 1.10,2013-02-19 06:24:00,
2013-02-19 04:39:00,39.7,27.0,30.19,SSW,200,0.0,3.0,59,0.00,,,0.00,weatherlink.com 1.10,2013-02-19 06:39:00,
2013-02-19 04:55:00,39.4,27.0,30.19,SSW,200,0.0,3.0,60,0.00,,,0.00,weatherlink.com 1.10,2013-02-19 06:55:00,
2013-02-19 05:10:00,38.4,27.0,30.17,South,171,0.0,5.0,62,0.00,,,0.00,weatherlink.com 1.10,2013-02-19 07:10:00,
2013-02-19 05:25:00,38.2,27.0,30.16,SSE,159,2.0,6.0,64,0.00,,,0.00,weatherlink.com 1.10,2013-02-19 07:25:00,
2013-02-19 05:41:00,38.4,27.0,30.17,South,184,4.0,7.0,62,0.00,,,0.00,weatherlink.com 1.10,2013-02-19 07:41:00,
2013-02-19 05:56:00,38.0,27.0,30.16,South,176,0.0,5.0,64,0.00,,,0.00,weatherlink.com 1.10,2013-02-19 07:56:00,
2013-02-19 06:11:00,37.7,27.0,30.17,South,176,0.0,2.0,65,0.00,,,0.00,weatherlink.com 1.10,2013-02-19 08:11:00,
2013-02-19 06:27:00,37.7,27.0,30.14,South,176,0.0,2.0,65,0.00,,,0.00,weatherlink.com 1.10,2013-02-19 08:27:00,
2013-02-19 06:43:00,37.9,27.0,30.13,South,176,1.0,3.0,64,0.00,,,0.00,weatherlink.com 1.10,2013-02-19 08:43:00,
2013-02-19 06:58:00,37.5,27.0,30.14,South,176,0.0,3.0,66,0.00,,,0.00,weatherlink.com 1.10,2013-02-19 08:58:00,
2013-02-19 07:13:00,37.5,27.0,30.14,South,176,0.0,0.0,66,0.00,,,0.00,weatherlink.com 1.10,2013-02-19 09:13:00,
2013-02-19 07:28:00,37.4,27.0,30.14,South,176,0.0,0.0,67,0.00,,,0.00,weatherlink.com 1.10,2013-02-19 09:28:00,
2013-02-19 07:44:00,37.3,28.0,30.13,South,176,0.0,0.0,68,0.00,,,0.00,weatherlink.com 1.10,2013-02-19 09:44:00,
2013-02-19 07:59:00,37.0,29.0,30.12,South,176,0.0,0.0,72,0.00,,,0.00,weatherlink.com 1.10,2013-02-19 09:59:00,
2013-02-19 08:14:00,36.6,28.0,30.12,South,176,0.0,0.0,71,0.00,,,0.00,weatherlink.com 1.10,2013-02-19 10:14:00,
2013-02-19 08:30:00,36.6,28.0,30.12,South,176,0.0,1.0,72,0.00,,,0.00,weatherlink.com 1.10,2013-02-19 10:30:00,
2013-02-19 08:45:00,36.5,28.0,30.12,South,176,0.0,0.0,71,0.00,,,0.00,weatherlink.com 1.10,2013-02-19 10:45:00,
2013-02-19 09:01:00,36.8,29.0,30.12,South,176,2.0,2.0,72,0.00,,,0.00,weatherlink.com 1.10,2013-02-19 11:01:00,
2013-02-19 09:16:00,37.0,29.0,30.12,South,176,0.0,3.0,74,0.00,,,0.00,weatherlink.com 1.10,2013-02-19 11:16:00,
2013-02-19 09:32:00,37.0,29.0,30.12,West,273,0.0,5.0,73,0.00,,,0.00,weatherlink.com 1.10,2013-02-19 11:32:00,
2013-02-19 09:47:00,36.8,30.0,30.10,West,273,0.0,2.0,76,0.00,,,0.00,weatherlink.com 1.10,2013-02-19 11:47:00,
2013-02-19 10:02:00,37.2,32.0,30.10,WSW,248,3.0,7.0,81,0.03,,,0.03,weatherlink.com 1.10,2013-02-19 12:02:00,
2013-02-19 10:18:00,36.8,33.0,30.10,SW,225,2.0,3.0,86,0.05,,,0.05,weatherlink.com 1.10,2013-02-19 12:18:00,
2013-02-19 10:34:00,37.0,34.0,30.09,NW,306,3.0,3.0,90,0.05,,,0.05,weatherlink.com 1.10,2013-02-19 12:34:00,
2013-02-19 10:49:00,37.1,35.0,30.09,WSW,244,1.0,5.0,91,0.06,,,0.06,weatherlink.com 1.10,2013-02-19 12:49:00,
2013-02-19 11:04:00,36.8,35.0,30.09,WSW,244,0.0,1.0,92,0.04,,,0.07,weatherlink.com 1.10,2013-02-19 13:04:00,
2013-02-19 11:20:00,36.6,34.0,30.07,WSW,244,0.0,2.0,92,0.03,,,0.08,weatherlink.com 1.10,2013-02-19 13:20:00,
2013-02-19 11:35:00,36.6,35.0,30.07,SSE,149,1.0,4.0,93,0.02,,,0.08,weatherlink.com 1.10,2013-02-19 13:35:00,
2013-02-19 11:50:00,36.7,35.0,30.05,SE,143,0.0,3.0,94,0.02,,,0.08,weatherlink.com 1.10,2013-02-19 13:50:00,
2013-02-19 12:05:00,36.8,35.0,30.05,SE,143,0.0,3.0,94,0.01,,,0.08,weatherlink.com 1.10,2013-02-19 14:05:00,
2013-02-19 12:21:00,36.8,35.0,30.04,SE,142,0.0,5.0,94,0.00,,,0.08,weatherlink.com 1.10,2013-02-19 14:21:00,
2013-02-19 12:36:00,37.1,36.0,30.03,South,171,1.0,4.0,94,0.00,,,0.08,weatherlink.com 1.10,2013-02-19 14:36:00,
2013-02-19 12:52:00,37.5,36.0,30.02,South,171,0.0,2.0,94,0.00,,,0.08,weatherlink.com 1.10,2013-02-19 14:52:00,
2013-02-19 13:07:00,38.1,37.0,30.02,South,171,0.0,1.0,95,0.00,,,0.08,weatherlink.com 1.10,2013-02-19 15:07:00,
2013-02-19 13:22:00,39.1,38.0,30.02,South,171,0.0,1.0,95,0.00,,,0.08,weatherlink.com 1.10,2013-02-19 15:22:00,
2013-02-19 13:38:00,40.1,39.0,30.02,SSW,211,1.0,4.0,95,0.00,,,0.08,weatherlink.com 1.10,2013-02-19 15:38:00,
2013-02-19 13:53:00,40.4,39.0,30.02,WSW,249,0.0,2.0,95,0.00,,,0.08,weatherlink.com 1.10,2013-02-19 15:53:00,
2013-02-19 14:08:00,40.2,39.0,30.01,NNE,31,2.0,4.0,94,0.00,,,0.08,weatherlink.com 1.10,2013-02-19 16:08:00,
2013-02-19 14:24:00,40.2,39.0,30.01,North,360,1.0,2.0,94,0.00,,,0.08,weatherlink.com 1.10,2013-02-19 16:24:00,
2013-02-19 14:39:00,41.1,40.0,30.00,North,10,0.0,2.0,94,0.00,,,0.08,weatherlink.com 1.10,2013-02-19 16:39:00,
2013-02-19 14:55:00,41.7,40.0,29.99,NNE,19,0.0,1.0,94,0.00,,,0.08,weatherlink.com 1.10,2013-02-19 16:55:00,
2013-02-19 15:10:00,42.2,41.0,29.98,NNE,19,1.0,2.0,94,0.00,,,0.08,weatherlink.com 1.10,2013-02-19 17:10:00,
2013-02-19 15:26:00,42.4,41.0,29.96,ENE,59,2.0,4.0,93,0.00,,,0.08,weatherlink.com 1.10,2013-02-19 17:26:00,
2013-02-19 15:41:00,42.8,41.0,29.95,ENE,75,0.0,4.0,92,0.00,,,0.08,weatherlink.com 1.10,2013-02-19 17:41:00,
2013-02-19 15:56:00,43.8,42.0,29.94,ENE,64,2.0,5.0,92,0.00,,,0.08,weatherlink.com 1.10,2013-02-19 17:56:00,
2013-02-19 16:12:00,44.6,42.0,29.94,ENE,64,2.0,4.0,90,0.00,,,0.08,weatherlink.com 1.10,2013-02-19 18:12:00,
2013-02-19 16:27:00,45.5,42.0,29.93,SSE,150,2.0,4.0,88,0.00,,,0.08,weatherlink.com 1.10,2013-02-19 18:27:00,
2013-02-19 16:42:00,47.7,44.0,29.91,SE,134,0.0,6.0,87,0.00,,,0.08,weatherlink.com 1.10,2013-02-19 18:42:00,
2013-02-19 16:58:00,48.7,44.0,29.91,SSW,205,4.0,6.0,84,0.00,,,0.08,weatherlink.com 1.10,2013-02-19 18:58:00,
2013-02-19 17:13:00,50.5,45.0,29.90,SSW,207,5.0,8.0,80,0.00,,,0.08,weatherlink.com 1.10,2013-02-19 19:13:00,
2013-02-19 17:29:00,52.4,45.0,29.89,SSW,208,3.0,9.0,75,0.00,,,0.08,weatherlink.com 1.10,2013-02-19 19:29:00,
2013-02-19 17:45:00,52.4,44.0,29.89,SSW,200,3.0,9.0,73,0.00,,,0.08,weatherlink.com 1.10,2013-02-19 19:45:00,
2013-02-19 17:59:00,53.2,45.0,29.88,SSE,156,3.0,7.0,74,0.00,,,0.08,weatherlink.com 1.10,2013-02-19 19:59:00,
2013-02-19 18:15:00,51.4,44.0,29.88,SE,144,3.0,7.0,77,0.00,,,0.08,weatherlink.com 1.10,2013-02-19 20:15:00,
2013-02-19 21:09:00,49.2,28.0,29.93,WNW,298,10.0,21.0,43,0.00,,,0.08,weatherlink.com 1.10,2013-02-19 23:09:00,
2013-02-19 21:25:00,48.7,27.0,29.95,West,276,15.0,29.0,42,0.00,,,0.08,weatherlink.com 1.10,2013-02-19 23:25:00,
2013-02-19 21:42:00,48.7,25.0,29.95,NW,310,22.0,30.0,40,0.00,,,0.08,weatherlink.com 1.10,2013-02-19 23:42:00,
2013-02-19 21:58:00,48.2,26.0,29.97,West,277,16.0,27.0,41,0.00,,,0.08,weatherlink.com 1.10,2013-02-19 23:58:00,
2013-02-19 22:14:00,47.3,25.0,29.98,WNW,286,7.0,13.0,42,0.00,,,0.08,weatherlink.com 1.10,2013-02-20 00:14:00,
2013-02-19 22:31:00,46.2,25.0,29.98,West,273,3.0,4.0,43,0.00,,,0.08,weatherlink.com 1.10,2013-02-20 00:31:00,
2013-02-19 22:48:00,45.5,24.0,29.99,WSW,257,3.0,9.0,43,0.00,,,0.08,weatherlink.com 1.10,2013-02-20 00:48:00,
2013-02-19 23:04:00,45.2,22.0,30.00,WNW,284,6.0,11.0,39,0.00,,,0.08,weatherlink.com 1.10,2013-02-20 01:04:00,
2013-02-19 23:21:00,45.0,21.0,30.00,WNW,294,4.0,12.0,38,0.00,,,0.08,weatherlink.com 1.10,2013-02-20 01:21:00,
2013-02-19 23:37:00,45.4,19.0,30.00,West,281,11.0,23.0,35,0.00,,,0.08,weatherlink.com 1.10,2013-02-20 01:37:00,
2013-02-19 23:54:00,44.9,19.0,30.01,WNW,287,8.0,18.0,35,0.00,,,0.08,weatherlink.com 1.10,2013-02-20 01:54:00,